Weather in Squaw Hill

United States     39°20′27″N   122°41′06″W
temp.,
°C
wind,
m/s
gust,
m/s
humid.,
%
clouds,
%
prec.,
mm/h
press.,
hPa
HPBL,
m
23 may, mon
mon2323:00+13nnw3354100 0.0 101741
02:00+12nw34515 0.0 101766
05:00+12nnw224672 0.0 101730
08:00+18n113377 0.0 1016207
11:00+25ese122168 0.0 10141611
14:00+28sw231899 0.0 10132429
17:00+27wsw222343 0.0 10112327
20:00+19wnw22535 0.0 101240
24 may, tue
tue2423:00+16n22521 0.0 101326
02:00+16nne22355 0.0 101213
05:00+15n22395 0.0 101214
08:00+21nne11315 0.0 1012184
11:00+28ene13175 0.0 10111440
14:00+31s131519 0.0 10092415
17:00+30sw12175 0.0 10082208
20:00+22wnw11400 0.0 100913
25 may, wed
wed2523:00+20nne22362 0.0 101029
02:00+18n22395 0.0 101015
05:00+18n22405 0.0 101011
08:00+24ene113150 0.0 1010163
11:00+29sse2222100 0.0 10091764
14:00+31sw4319100 0.0 10082775
17:00+30wsw542447 0.0 10072290
20:00+22w224661 0.0 100830
26 may, thu
thu2623:00+17wnw33562 0.0 100940
02:00+16wnw33554 0.0 100945
05:00+14nw335981 0.0 100939
08:00+18wnw2349100 0.0 1010176
11:00+24wsw3423100 0.0 10101070
14:00+26w4517100 0.0 10101815
17:00+23w4531100 0.0 10111028
20:00+17w3649100 0.0 1012313
27 may, fri
fri2723:00+12wnw476874 0.0 1014164
02:00+12nw3661100 0.0 1014100
05:00+12nw2457100 0.0 101577
08:00+15wnw2446100 0.0 1015222
11:00+20wsw3432100 0.0 10151162
14:00+22w5631100 0.0 10141660
17:00+19w4636100 0.0 10131147
20:00+13w4758100 0.0 1014409